Location: Chateh
(58.6667°N, 118.6000°W)
Time: 09:29:04
(UTC+00:00)

ITAMSAT 1 - Visible Passes

Search period start: 08 December 2023 00:00
Search period end: 18 December 2023 00:00
Orbit: 783 x 795 km, 98.8° (Epoch: 07 December)

Date Brightness Start Highest point End Pass type
(mag) Time Alt. Az. Time Alt. Az. Time Alt. Az.
08 Dec 9.1 02:00:26 21° NNE 02:00:26 21° NNE 02:02:55 10° N visible
08 Dec 9.6 03:41:08 22° NNW 03:41:08 22° NNW 03:42:55 10° NNW visible
08 Dec 10.3 15:36:40 10° NE 15:39:59 17° E 15:43:17 10° ESE visible
09 Dec 9.3 01:30:18 17° NNE 01:30:18 17° NNE 01:32:48 10° N visible
09 Dec 9.3 03:11:01 24° N 03:11:01 24° N 03:13:03 10° NNW visible
09 Dec 10.4 04:51:43 13° NW 04:51:43 13° NW 04:52:23 10° NNW visible
09 Dec 10.8 15:09:07 10° ENE 15:09:38 10° ENE 15:10:08 10° E visible
10 Dec 9.4 01:00:10 14° NNE 01:00:10 14° NNE 01:02:30 10° N visible
10 Dec 9.2 02:40:52 24° N 02:40:52 24° N 02:43:07 10° N visible
10 Dec 10.1 04:21:35 17° NNW 04:21:35 17° NNW 04:22:46 10° NNW visible
11 Dec 9.6 00:30:04 10° NE 00:30:47 10° NNE 00:31:32 10° NNE visible
11 Dec 9.2 02:10:44 22° NNE 02:10:44 22° NNE 02:13:07 10° N visible
11 Dec 9.7 03:51:27 20° NNW 03:51:27 20° NNW 03:53:01 10° NNW visible
12 Dec 9.2 01:40:36 18° NNE 01:40:36 18° NNE 01:43:01 10° N visible
12 Dec 9.4 03:21:18 23° N 03:21:18 23° N 03:23:11 10° NNW visible
12 Dec 10.5 05:02:01 12° NW 05:02:01 12° NW 05:02:24 10° NNW visible
12 Dec 10.5 15:17:55 10° ENE 15:19:56 12° E 15:21:56 10° ESE visible
13 Dec 9.4 01:10:27 15° NNE 01:10:27 15° NNE 01:12:48 10° N visible
13 Dec 9.3 02:51:10 23° N 02:51:10 23° N 02:53:16 10° N visible
13 Dec 10.2 04:31:52 15° NNW 04:31:52 15° NNW 04:32:50 10° NNW visible
14 Dec 9.5 00:40:19 11° NE 00:40:41 11° NNE 00:42:13 10° NNE visible
14 Dec 9.2 02:21:01 22° NNE 02:21:01 22° NNE 02:23:16 10° N visible
14 Dec 9.9 04:01:43 19° NNW 04:01:43 19° NNW 04:03:07 10° NNW visible
15 Dec 9.2 01:50:52 19° NNE 01:50:52 19° NNE 01:53:13 10° N visible
15 Dec 9.6 03:31:34 21° NNW 03:31:34 21° NNW 03:33:18 10° NNW visible
15 Dec 10.6 05:12:16 10° NW 05:12:16 10° NW 05:12:22 10° NW visible
15 Dec 10.4 15:27:28 10° NE 15:30:12 14° E 15:32:56 10° ESE visible
16 Dec 9.3 01:20:42 16° NNE 01:20:42 16° NNE 01:23:03 10° N visible
16 Dec 9.3 03:01:25 23° N 03:01:25 23° N 03:03:24 10° NNW visible
16 Dec 10.3 04:42:07 14° NNW 04:42:07 14° NNW 04:42:52 10° NNW visible
17 Dec 9.5 00:50:33 12° NNE 00:50:36 12° NNE 00:52:39 10° N visible
17 Dec 9.2 02:31:15 22° N 02:31:15 22° N 02:33:26 10° N visible
17 Dec 10.0 04:11:57 17° NNW 04:11:57 17° NNW 04:13:12 10° NNW visible
